Time,TemperatureF,DewpointF,PressureIn,WindDirection,WindDirectionDegrees,WindSpeedMPH,WindSpeedGustMPH,Humidity,HourlyPrecipIn,Conditions,Clouds,dailyrainin,SoftwareType,DateUTC
2013-05-09 00:00:00,57.3,56.7,30.05,SSE,163,1.0,6.0,98,0.00,,OVC003,0.12,VWS V14.01,2013-05-09 04:00:00,
2013-05-09 00:01:00,57.3,56.7,30.05,ESE,120,3.0,4.0,98,0.00,,,0.00,VWS V14.01,2013-05-09 04:01:00,
2013-05-09 00:06:00,57.2,56.6,30.05,South,186,2.0,4.0,98,0.00,,,0.00,VWS V14.01,2013-05-09 04:06:00,
2013-05-09 00:10:00,57.2,56.6,30.05,SSE,148,0.0,5.0,98,0.00,,BKN050,0.00,VWS V14.01,2013-05-09 04:10:00,
2013-05-09 00:11:00,57.2,56.6,30.05,South,188,3.0,4.0,98,0.00,,,0.00,VWS V14.01,2013-05-09 04:11:00,
2013-05-09 00:16:00,57.1,56.5,30.05,SE,141,2.0,5.0,98,0.00,,,0.00,VWS V14.01,2013-05-09 04:16:00,
2013-05-09 00:20:00,57.1,56.5,30.05,SE,135,2.0,5.0,98,0.00,,BKN050,0.00,VWS V14.01,2013-05-09 04:20:00,
2013-05-09 00:21:00,57.1,56.5,30.05,ESE,110,1.0,2.0,98,0.00,,,0.00,VWS V14.01,2013-05-09 04:21:00,
2013-05-09 00:26:00,57.0,56.4,30.05,SSE,153,0.0,2.0,98,0.00,,,0.00,VWS V14.01,2013-05-09 04:26:00,
2013-05-09 00:30:00,57.0,56.4,30.05,SSE,157,0.0,2.0,98,0.00,,BKN050,0.00,VWS V14.01,2013-05-09 04:30:00,
2013-05-09 00:31:00,57.0,56.4,30.05,SSE,157,0.0,0.0,98,0.00,,,0.00,VWS V14.01,2013-05-09 04:31:00,
2013-05-09 00:36:00,57.1,56.5,30.05,SSE,155,2.0,2.0,98,0.00,,,0.00,VWS V14.01,2013-05-09 04:36:00,
2013-05-09 00:40:00,57.1,56.5,30.05,SSE,162,1.0,2.0,98,0.00,,BKN050,0.00,VWS V14.01,2013-05-09 04:40:00,
2013-05-09 00:41:00,57.1,56.5,30.05,SE,146,2.0,5.0,98,0.00,,,0.00,VWS V14.01,2013-05-09 04:41:00,
2013-05-09 00:46:00,57.0,56.4,30.05,ESE,119,1.0,5.0,98,0.00,,,0.00,VWS V14.01,2013-05-09 04:46:00,
2013-05-09 00:50:00,57.0,56.4,30.05,ESE,118,1.0,5.0,98,0.00,,BKN050,0.00,VWS V14.01,2013-05-09 04:50:00,
2013-05-09 00:51:00,57.0,56.4,30.05,ESE,104,0.0,2.0,98,0.00,,,0.00,VWS V14.01,2013-05-09 04:51:00,
2013-05-09 00:56:00,57.0,56.4,30.05,SSE,161,0.0,2.0,98,0.00,,,0.00,VWS V14.01,2013-05-09 04:56:00,
2013-05-09 01:00:00,57.0,56.4,30.05,SSE,160,2.0,5.0,98,0.00,,BKN050,0.00,VWS V14.01,2013-05-09 05:00:00,
2013-05-09 01:01:00,56.9,56.3,30.04,SE,125,2.0,3.0,98,0.00,,,0.00,VWS V14.01,2013-05-09 05:01:00,
2013-05-09 01:06:00,56.9,56.3,30.04,SSE,149,2.0,5.0,98,0.00,,,0.00,VWS V14.01,2013-05-09 05:06:00,
2013-05-09 01:10:00,56.9,56.3,30.04,South,171,1.0,5.0,98,0.00,,BKN050,0.00,VWS V14.01,2013-05-09 05:10:00,
2013-05-09 01:11:00,56.9,56.3,30.04,SSE,165,1.0,2.0,98,0.00,,,0.00,VWS V14.01,2013-05-09 05:11:00,
2013-05-09 01:16:00,56.9,56.3,30.03,SE,143,0.0,2.0,98,0.00,,,0.00,VWS V14.01,2013-05-09 05:16:00,
2013-05-09 01:20:00,56.9,56.3,30.03,SSE,153,1.0,2.0,98,0.00,,BKN050,0.00,VWS V14.01,2013-05-09 05:20:00,
2013-05-09 01:21:00,56.9,56.3,30.03,SSE,154,0.0,1.0,98,0.00,,,0.00,VWS V14.01,2013-05-09 05:21:00,
2013-05-09 01:26:00,57.0,56.4,30.03,SE,133,0.0,2.0,98,0.00,,,0.00,VWS V14.01,2013-05-09 05:26:00,
2013-05-09 01:30:00,57.0,56.4,30.03,SSE,147,0.0,2.0,98,0.00,,BKN050,0.00,VWS V14.01,2013-05-09 05:30:00,
2013-05-09 01:31:00,57.0,56.4,30.03,SE,144,0.0,0.0,98,0.00,,,0.00,VWS V14.01,2013-05-09 05:31:00,
2013-05-09 01:36:00,56.9,56.3,30.02,SE,129,0.0,1.0,98,0.00,,,0.00,VWS V14.01,2013-05-09 05:36:00,
2013-05-09 01:40:00,56.9,56.3,30.02,SSE,155,0.0,1.0,98,0.00,,BKN050,0.00,VWS V14.01,2013-05-09 05:40:00,
2013-05-09 01:41:00,57.0,56.4,30.02,SSE,155,0.0,0.0,98,0.00,,,0.00,VWS V14.01,2013-05-09 05:41:00,
2013-05-09 01:46:00,56.9,56.3,30.02,SE,128,0.0,0.0,98,0.00,,,0.00,VWS V14.01,2013-05-09 05:46:00,
2013-05-09 01:50:00,56.9,56.3,30.02,SSE,150,0.0,0.0,98,0.00,,BKN050,0.00,VWS V14.01,2013-05-09 05:50:00,
2013-05-09 01:51:00,56.9,56.3,30.02,SE,134,0.0,0.0,98,0.00,,,0.00,VWS V14.01,2013-05-09 05:51:00,
2013-05-09 01:56:00,56.9,56.3,30.02,South,169,0.0,0.0,98,0.00,,,0.00,VWS V14.01,2013-05-09 05:56:00,
2013-05-09 02:00:00,56.9,56.3,30.02,South,169,0.0,0.0,98,0.00,,BKN050,0.00,VWS V14.01,2013-05-09 06:00:00,
2013-05-09 02:01:00,57.0,56.4,30.02,South,169,0.0,0.0,98,0.00,,,0.00,VWS V14.01,2013-05-09 06:01:00,
2013-05-09 02:06:00,57.0,56.7,30.01,South,169,0.0,0.0,99,0.00,,,0.00,VWS V14.01,2013-05-09 06:06:00,
2013-05-09 02:10:00,56.9,56.3,30.01,South,169,0.0,0.0,98,0.00,,BKN050,0.00,VWS V14.01,2013-05-09 06:10:00,
2013-05-09 02:11:00,57.0,56.7,30.01,South,169,0.0,0.0,99,0.00,,,0.00,VWS V14.01,2013-05-09 06:11:00,
2013-05-09 02:16:00,57.0,56.4,30.01,South,169,0.0,0.0,98,0.00,,,0.00,VWS V14.01,2013-05-09 06:16:00,
2013-05-09 02:20:00,56.9,56.3,30.01,ESE,108,0.0,0.0,98,0.00,,BKN050,0.00,VWS V14.01,2013-05-09 06:20:00,
2013-05-09 02:21:00,56.9,56.3,30.01,ESE,108,0.0,0.0,98,0.00,,,0.00,VWS V14.01,2013-05-09 06:21:00,
2013-05-09 02:26:00,56.8,56.2,30.01,ESE,115,0.0,0.0,98,0.00,,,0.00,VWS V14.01,2013-05-09 06:26:00,
2013-05-09 02:30:00,56.8,56.2,30.01,ESE,114,1.0,2.0,98,0.00,,BKN050,0.00,VWS V14.01,2013-05-09 06:30:00,
2013-05-09 02:31:00,56.8,56.2,30.01,SE,126,0.0,1.0,98,0.00,,,0.00,VWS V14.01,2013-05-09 06:31:00,
2013-05-09 02:36:00,56.8,56.2,30.01,SE,124,0.0,1.0,98,0.00,,,0.00,VWS V14.01,2013-05-09 06:36:00,
2013-05-09 02:40:00,56.7,56.1,30.01,SSE,155,1.0,1.0,98,0.00,,BKN050,0.00,VWS V14.01,2013-05-09 06:40:00,
2013-05-09 02:41:00,56.7,56.1,30.01,SE,145,0.0,1.0,98,0.00,,,0.00,VWS V14.01,2013-05-09 06:41:00,
2013-05-09 02:46:00,56.6,56.0,30.01,ENE,72,1.0,2.0,98,0.00,,,0.00,VWS V14.01,2013-05-09 06:46:00,
2013-05-09 02:50:00,56.5,55.9,30.01,SE,134,0.0,3.0,98,0.00,,BKN050,0.00,VWS V14.01,2013-05-09 06:50:00,
2013-05-09 02:51:00,56.5,55.9,30.01,SE,134,0.0,0.0,98,0.00,,,0.00,VWS V14.01,2013-05-09 06:51:00,
2013-05-09 02:56:00,56.5,55.9,30.01,SE,134,0.0,1.0,98,0.00,,,0.00,VWS V14.01,2013-05-09 06:56:00,
2013-05-09 03:00:00,56.5,56.2,30.00,SE,134,0.0,1.0,99,0.00,,BKN050,0.00,VWS V14.01,2013-05-09 07:00:00,
2013-05-09 03:01:00,56.5,56.2,30.00,SE,134,0.0,0.0,99,0.00,,,0.00,VWS V14.01,2013-05-09 07:01:00,
2013-05-09 03:06:00,56.4,56.1,30.00,South,169,0.0,0.0,99,0.00,,,0.00,VWS V14.01,2013-05-09 07:06:00,
2013-05-09 03:10:00,56.3,55.7,30.00,South,169,0.0,0.0,98,0.00,,BKN050,0.00,VWS V14.01,2013-05-09 07:10:00,
2013-05-09 03:11:00,56.3,55.8,30.00,South,169,0.0,0.0,98,0.00,,,0.00,VWS V14.01,2013-05-09 07:11:00,
2013-05-09 03:16:00,56.3,56.0,30.00,SSE,167,0.0,0.0,99,0.00,,,0.00,VWS V14.01,2013-05-09 07:16:00,
2013-05-09 03:20:00,56.3,56.0,30.00,South,169,0.0,0.0,99,0.00,,BKN050,0.00,VWS V14.01,2013-05-09 07:20:00,
2013-05-09 03:21:00,56.3,56.0,30.00,South,169,0.0,0.0,99,0.00,,,0.00,VWS V14.01,2013-05-09 07:21:00,
2013-05-09 03:26:00,56.3,56.0,29.99,South,169,0.0,0.0,99,0.00,,,0.00,VWS V14.01,2013-05-09 07:26:00,
2013-05-09 03:30:00,56.4,56.1,29.99,SSE,167,0.0,0.0,99,0.00,,BKN050,0.00,VWS V14.01,2013-05-09 07:30:00,
2013-05-09 03:31:00,56.4,56.1,29.99,SSE,168,0.0,0.0,99,0.00,,,0.00,VWS V14.01,2013-05-09 07:31:00,
2013-05-09 03:36:00,56.5,56.2,29.99,SSE,167,0.0,0.0,99,0.00,,,0.00,VWS V14.01,2013-05-09 07:36:00,
2013-05-09 03:40:00,56.5,56.2,29.99,SSE,167,0.0,0.0,99,0.00,,BKN050,0.00,VWS V14.01,2013-05-09 07:40:00,
2013-05-09 03:41:00,56.5,56.2,29.99,SSE,167,0.0,0.0,99,0.00,,,0.00,VWS V14.01,2013-05-09 07:41:00,
2013-05-09 03:46:00,56.5,56.2,29.99,SSE,168,0.0,0.0,99,0.00,,,0.00,VWS V14.01,2013-05-09 07:46:00,
2013-05-09 03:50:00,56.6,56.3,29.99,South,173,0.0,0.0,99,0.00,,BKN050,0.00,VWS V14.01,2013-05-09 07:50:00,
2013-05-09 03:51:00,56.6,56.3,29.99,South,173,0.0,0.0,99,0.00,,,0.00,VWS V14.01,2013-05-09 07:51:00,
2013-05-09 03:56:00,56.6,56.3,30.00,South,172,0.0,0.0,99,0.00,,,0.00,VWS V14.01,2013-05-09 07:56:00,
2013-05-09 04:00:00,56.6,56.3,30.00,South,172,0.0,0.0,99,0.00,,BKN050,0.00,VWS V14.01,2013-05-09 08:00:00,
2013-05-09 04:01:00,56.6,56.3,30.00,SSE,153,0.0,0.0,99,0.00,,,0.00,VWS V14.01,2013-05-09 08:01:00,
2013-05-09 04:06:00,56.5,56.2,29.99,SSE,153,0.0,0.0,99,0.00,,,0.00,VWS V14.01,2013-05-09 08:06:00,
2013-05-09 04:10:00,56.6,56.3,29.99,SSE,153,0.0,0.0,99,0.00,,BKN050,0.00,VWS V14.01,2013-05-09 08:10:00,
2013-05-09 04:11:00,56.5,56.2,29.99,SSE,153,0.0,0.0,99,0.00,,,0.00,VWS V14.01,2013-05-09 08:11:00,
2013-05-09 04:16:00,56.6,56.3,29.99,SSE,153,0.0,0.0,99,0.00,,,0.00,VWS V14.01,2013-05-09 08:16:00,
2013-05-09 04:20:00,56.6,56.3,29.99,SSE,154,0.0,0.0,99,0.00,,BKN050,0.00,VWS V14.01,2013-05-09 08:20:00,
2013-05-09 04:21:00,56.6,56.3,29.99,SSE,153,0.0,0.0,99,0.00,,,0.00,VWS V14.01,2013-05-09 08:21:00,
2013-05-09 04:26:00,56.6,56.3,29.99,SSE,153,0.0,0.0,99,0.00,,,0.00,VWS V14.01,2013-05-09 08:26:00,
2013-05-09 04:30:00,56.6,56.3,29.99,SSE,153,0.0,0.0,99,0.00,,BKN050,0.00,VWS V14.01,2013-05-09 08:30:00,
2013-05-09 04:31:00,56.6,56.3,29.98,SSE,153,0.0,0.0,99,0.00,,,0.00,VWS V14.01,2013-05-09 08:31:00,
2013-05-09 04:36:00,56.6,56.3,29.98,SSE,154,0.0,0.0,99,0.00,,,0.00,VWS V14.01,2013-05-09 08:36:00,
2013-05-09 04:40:00,56.6,56.3,29.99,SSE,153,0.0,0.0,99,0.00,,BKN050,0.00,VWS V14.01,2013-05-09 08:40:00,
2013-05-09 04:41:00,56.6,56.3,29.99,SSE,153,0.0,0.0,99,0.00,,,0.00,VWS V14.01,2013-05-09 08:41:00,
2013-05-09 04:46:00,56.7,56.4,29.99,SSE,153,0.0,0.0,99,0.00,,,0.00,VWS V14.01,2013-05-09 08:46:00,
2013-05-09 04:50:00,56.7,56.4,29.99,SSE,153,0.0,0.0,99,0.00,,BKN050,0.00,VWS V14.01,2013-05-09 08:50:00,
2013-05-09 04:51:00,56.7,56.4,29.99,SSE,153,0.0,0.0,99,0.00,,,0.00,VWS V14.01,2013-05-09 08:51:00,
2013-05-09 04:56:00,56.7,56.4,29.99,SE,140,1.0,1.0,99,0.00,,,0.00,VWS V14.01,2013-05-09 08:56:00,
2013-05-09 05:00:00,56.7,56.4,29.98,SE,141,0.0,1.0,99,0.00,,BKN050,0.00,VWS V14.01,2013-05-09 09:00:00,
2013-05-09 05:01:00,56.7,56.4,29.98,SE,139,0.0,1.0,99,0.00,,,0.00,VWS V14.01,2013-05-09 09:01:00,
2013-05-09 05:06:00,56.7,56.4,29.98,SE,138,0.0,1.0,99,0.00,,,0.00,VWS V14.01,2013-05-09 09:06:00,
2013-05-09 05:10:00,56.7,56.4,29.98,SE,136,0.0,1.0,99,0.00,,BKN050,0.00,VWS V14.01,2013-05-09 09:10:00,
2013-05-09 05:11:00,56.7,56.4,29.99,SE,136,0.0,0.0,99,0.00,,,0.00,VWS V14.01,2013-05-09 09:11:00,
2013-05-09 05:16:00,56.6,56.3,29.98,SE,136,0.0,1.0,99,0.00,,,0.00,VWS V14.01,2013-05-09 09:16:00,
2013-05-09 05:20:00,56.7,56.4,29.98,SE,136,0.0,1.0,99,0.00,,BKN050,0.00,VWS V14.01,2013-05-09 09:20:00,
2013-05-09 05:21:00,56.7,56.4,29.98,SE,136,0.0,0.0,99,0.00,,,0.00,VWS V14.01,2013-05-09 09:21:00,
2013-05-09 05:26:00,56.7,56.4,29.99,SE,136,0.0,0.0,99,0.00,,,0.00,VWS V14.01,2013-05-09 09:26:00,
2013-05-09 05:30:00,56.7,56.4,29.99,SE,136,0.0,0.0,99,0.00,,BKN050,0.00,VWS V14.01,2013-05-09 09:30:00,
2013-05-09 05:31:00,56.7,56.4,29.99,SE,136,0.0,0.0,99,0.00,,,0.00,VWS V14.01,2013-05-09 09:31:00,
2013-05-09 05:36:00,56.7,56.4,29.99,SE,136,0.0,0.0,99,0.00,,,0.00,VWS V14.01,2013-05-09 09:36:00,
2013-05-09 05:40:00,56.7,56.4,29.98,SE,136,0.0,0.0,99,0.00,,BKN050,0.00,VWS V14.01,2013-05-09 09:40:00,
2013-05-09 05:41:00,56.7,56.4,29.98,SE,136,0.0,0.0,99,0.00,,,0.00,VWS V14.01,2013-05-09 09:41:00,
2013-05-09 05:46:00,56.7,56.4,29.98,SE,136,0.0,0.0,99,0.00,,,0.00,VWS V14.01,2013-05-09 09:46:00,
2013-05-09 05:50:00,56.7,56.4,29.98,SE,136,0.0,0.0,99,0.00,,BKN050,0.00,VWS V14.01,2013-05-09 09:50:00,
2013-05-09 05:51:00,56.7,56.4,29.98,SE,136,0.0,0.0,99,0.00,,,0.00,VWS V14.01,2013-05-09 09:51:00,
2013-05-09 05:56:00,56.8,56.5,29.98,SE,136,0.0,0.0,99,0.00,,,0.00,VWS V14.01,2013-05-09 09:56:00,
2013-05-09 06:00:00,56.8,56.5,29.98,SE,136,0.0,0.0,99,0.00,,BKN050,0.00,VWS V14.01,2013-05-09 10:00:00,
2013-05-09 06:01:00,56.8,56.5,29.98,SE,136,0.0,0.0,99,0.00,,,0.00,VWS V14.01,2013-05-09 10:01:00,
2013-05-09 06:06:00,56.8,56.5,29.98,SE,136,0.0,0.0,99,0.00,,,0.00,VWS V14.01,2013-05-09 10:06:00,
2013-05-09 06:10:00,56.8,56.5,29.98,SE,136,0.0,0.0,99,0.00,,BKN050,0.00,VWS V14.01,2013-05-09 10:10:00,
2013-05-09 06:11:00,56.8,56.5,29.98,SE,136,0.0,0.0,99,0.00,,,0.00,VWS V14.01,2013-05-09 10:11:00,
2013-05-09 06:16:00,56.8,56.5,29.98,SE,136,0.0,0.0,99,0.00,,,0.00,VWS V14.01,2013-05-09 10:16:00,
2013-05-09 06:20:00,56.9,56.6,29.98,SE,136,0.0,0.0,99,0.00,,,0.00,VWS V14.01,2013-05-09 10:20:00,
2013-05-09 06:25:00,56.9,56.6,29.98,NE,34,0.0,1.0,99,0.00,,,0.00,VWS V14.01,2013-05-09 10:25:00,
2013-05-09 06:30:00,56.9,56.6,29.98,NE,34,0.0,0.0,99,0.00,,,0.00,VWS V14.01,2013-05-09 10:30:00,
2013-05-09 06:35:00,56.9,56.6,29.98,NE,34,0.0,1.0,99,0.00,,,0.00,VWS V14.01,2013-05-09 10:35:00,
2013-05-09 06:40:00,57.0,56.7,29.98,NE,34,0.0,0.0,99,0.00,,,0.00,VWS V14.01,2013-05-09 10:40:00,
2013-05-09 06:45:00,57.1,56.8,29.98,NE,34,0.0,0.0,99,0.00,,,0.00,VWS V14.01,2013-05-09 10:45:00,
2013-05-09 06:50:00,57.3,57.0,29.98,NE,34,0.0,0.0,99,0.00,,,0.00,VWS V14.01,2013-05-09 10:50:00,
2013-05-09 06:55:00,57.5,57.2,29.98,NE,34,0.0,0.0,99,0.00,,,0.00,VWS V14.01,2013-05-09 10:55:00,
2013-05-09 07:00:00,57.6,57.3,29.98,NE,34,0.0,0.0,99,0.00,,,0.00,VWS V14.01,2013-05-09 11:00:00,
2013-05-09 07:05:00,57.7,57.4,29.98,NE,34,0.0,1.0,99,0.00,,,0.00,VWS V14.01,2013-05-09 11:05:00,
2013-05-09 07:10:00,57.8,57.5,29.98,NE,34,0.0,0.0,99,0.00,,,0.00,VWS V14.01,2013-05-09 11:10:00,
2013-05-09 07:15:00,58.0,57.7,29.99,NE,34,0.0,0.0,99,0.00,,,0.00,VWS V14.01,2013-05-09 11:15:00,
2013-05-09 07:20:00,58.0,57.7,29.98,NE,34,0.0,0.0,99,0.00,,,0.00,VWS V14.01,2013-05-09 11:20:00,
2013-05-09 07:25:00,58.1,57.8,29.99,NE,43,0.0,1.0,99,0.00,,,0.00,VWS V14.01,2013-05-09 11:25:00,
2013-05-09 07:30:00,58.3,58.0,29.99,SE,128,0.0,0.0,99,0.00,,,0.00,VWS V14.01,2013-05-09 11:30:00,
2013-05-09 07:35:00,58.5,58.2,29.99,SE,129,0.0,0.0,99,0.00,,,0.00,VWS V14.01,2013-05-09 11:35:00,
2013-05-09 07:40:00,58.4,58.1,29.99,SE,128,0.0,0.0,99,0.00,,,0.00,VWS V14.01,2013-05-09 11:40:00,
2013-05-09 07:45:00,58.6,58.3,29.99,SE,129,0.0,0.0,99,0.00,,,0.00,VWS V14.01,2013-05-09 11:45:00,
2013-05-09 07:50:00,58.7,58.4,30.00,SE,128,0.0,0.0,99,0.00,,,0.00,VWS V14.01,2013-05-09 11:50:00,
2013-05-09 07:55:00,58.7,58.4,30.00,SSE,165,0.0,0.0,99,0.00,,,0.00,VWS V14.01,2013-05-09 11:55:00,
2013-05-09 08:00:00,58.7,58.4,30.00,SE,131,0.0,0.0,99,0.00,,OVC002,0.00,VWS V14.01,2013-05-09 12:00:00,
2013-05-09 08:05:00,58.7,58.4,30.00,SE,131,0.0,1.0,99,0.01,,OVC002,0.01,VWS V14.01,2013-05-09 12:05:00,
2013-05-09 08:10:00,58.7,58.4,29.99,SE,131,0.0,0.0,99,0.02,,OVC002,0.02,VWS V14.01,2013-05-09 12:10:00,
2013-05-09 08:15:00,58.8,58.5,29.99,SE,131,0.0,0.0,99,0.02,,OVC002,0.02,VWS V14.01,2013-05-09 12:15:00,
2013-05-09 08:20:00,58.9,58.6,29.99,SE,141,0.0,1.0,99,0.02,,OVC002,0.02,VWS V14.01,2013-05-09 12:20:00,
2013-05-09 08:25:00,59.0,58.7,29.99,SE,124,0.0,1.0,99,0.02,,OVC002,0.02,VWS V14.01,2013-05-09 12:25:00,
2013-05-09 08:30:00,59.2,58.9,30.00,SE,124,0.0,0.0,99,0.02,,OVC002,0.02,VWS V14.01,2013-05-09 12:30:00,
2013-05-09 08:35:00,59.6,59.3,29.99,SE,126,0.0,0.0,99,0.02,,OVC002,0.02,VWS V14.01,2013-05-09 12:35:00,
2013-05-09 08:40:00,59.7,59.4,29.99,SSE,152,1.0,1.0,99,0.02,,OVC002,0.02,VWS V14.01,2013-05-09 12:40:00,
2013-05-09 08:45:00,59.5,59.2,29.99,East,101,0.0,3.0,99,0.02,,OVC002,0.02,VWS V14.01,2013-05-09 12:45:00,
2013-05-09 08:50:00,59.7,59.4,29.99,East,100,0.0,1.0,99,0.02,,OVC002,0.02,VWS V14.01,2013-05-09 12:50:00,
2013-05-09 08:55:00,59.8,59.5,29.99,East,99,0.0,1.0,99,0.02,,OVC002,0.02,VWS V14.01,2013-05-09 12:55:00,
2013-05-09 09:00:00,60.0,59.7,29.99,NNE,22,0.0,0.0,99,0.02,,OVC004,0.02,VWS V14.01,2013-05-09 13:00:00,
2013-05-09 09:05:00,59.9,59.3,29.99,NNE,18,0.0,0.0,98,0.02,,OVC004,0.02,VWS V14.01,2013-05-09 13:05:00,
2013-05-09 09:10:00,60.1,59.8,29.98,SSE,150,0.0,0.0,99,0.00,,OVC004,0.02,VWS V14.01,2013-05-09 13:10:00,
2013-05-09 09:15:00,60.4,60.1,29.98,SE,128,1.0,1.0,99,0.00,,OVC004,0.02,VWS V14.01,2013-05-09 13:15:00,
2013-05-09 09:20:00,60.3,59.7,29.98,ESE,115,0.0,0.0,98,0.00,,OVC004,0.02,VWS V14.01,2013-05-09 13:20:00,
2013-05-09 09:25:00,60.4,59.8,29.98,East,98,1.0,1.0,98,0.00,,OVC004,0.02,VWS V14.01,2013-05-09 13:25:00,
2013-05-09 09:30:00,60.4,59.8,29.98,East,89,0.0,1.0,98,0.00,,OVC006,0.02,VWS V14.01,2013-05-09 13:30:00,
2013-05-09 09:35:00,60.5,59.9,29.98,East,101,1.0,3.0,98,0.00,,OVC006,0.02,VWS V14.01,2013-05-09 13:35:00,
2013-05-09 09:40:00,60.5,59.9,29.98,East,80,0.0,0.0,98,0.00,,OVC006,0.02,VWS V14.01,2013-05-09 13:40:00,
2013-05-09 09:45:00,61.0,60.7,29.97,ENE,75,0.0,1.0,99,0.00,,OVC006,0.02,VWS V14.01,2013-05-09 13:45:00,
2013-05-09 09:50:00,61.1,60.5,29.98,East,80,0.0,0.0,98,0.00,,OVC006,0.02,VWS V14.01,2013-05-09 13:50:00,
2013-05-09 09:55:00,61.4,60.8,29.97,WNW,288,1.0,2.0,98,0.00,,OVC006,0.02,VWS V14.01,2013-05-09 13:55:00,
2013-05-09 10:00:00,61.5,60.9,29.98,SW,233,0.0,0.0,98,0.00,,OVC006,0.02,VWS V14.01,2013-05-09 14:00:00,
2013-05-09 10:05:00,61.8,61.2,29.98,South,170,0.0,1.0,98,0.00,,OVC006,0.02,VWS V14.01,2013-05-09 14:05:00,
2013-05-09 10:10:00,61.8,60.9,29.98,SW,223,0.0,1.0,97,0.00,,OVC006,0.02,VWS V14.01,2013-05-09 14:10:00,
2013-05-09 10:15:00,61.7,60.8,29.98,WSW,245,3.0,4.0,97,0.00,,OVC006,0.02,VWS V14.01,2013-05-09 14:15:00,
2013-05-09 10:20:00,61.1,60.0,29.98,SSW,197,3.0,4.0,96,0.00,,OVC006,0.02,VWS V14.01,2013-05-09 14:20:00,
2013-05-09 10:25:00,60.7,59.6,29.98,SE,136,1.0,4.0,96,0.00,,OVC006,0.02,VWS V14.01,2013-05-09 14:25:00,
2013-05-09 10:30:00,60.5,59.4,29.98,SSE,159,3.0,5.0,96,0.00,,OVC006,0.02,VWS V14.01,2013-05-09 14:30:00,
2013-05-09 10:35:00,60.4,59.5,29.98,ESE,118,3.0,5.0,97,0.00,,OVC006,0.02,VWS V14.01,2013-05-09 14:35:00,
2013-05-09 10:40:00,60.5,59.7,29.98,ESE,117,1.0,2.0,97,0.00,,OVC006,0.02,VWS V14.01,2013-05-09 14:40:00,
2013-05-09 10:45:00,60.6,59.8,29.97,SSE,148,1.0,5.0,97,0.00,,OVC006,0.02,VWS V14.01,2013-05-09 14:45:00,
2013-05-09 10:50:00,60.9,60.0,29.97,East,95,2.0,3.0,97,0.00,,OVC006,0.02,VWS V14.01,2013-05-09 14:50:00,
2013-05-09 10:55:00,60.9,59.8,29.98,SSW,203,0.0,3.0,96,0.00,,OVC006,0.02,VWS V14.01,2013-05-09 14:55:00,
2013-05-09 11:00:00,61.3,60.4,29.98,SE,145,1.0,2.0,97,0.00,,OVC009,0.02,VWS V14.01,2013-05-09 15:00:00,
2013-05-09 11:05:00,61.6,60.5,29.98,SSW,210,1.0,3.0,96,0.00,,OVC009,0.02,VWS V14.01,2013-05-09 15:05:00,
2013-05-09 11:10:00,61.8,60.4,29.98,SSW,211,0.0,0.0,95,0.00,,OVC009,0.02,VWS V14.01,2013-05-09 15:10:00,
2013-05-09 11:15:00,62.0,60.3,29.98,SW,225,3.0,4.0,94,0.00,,OVC009,0.02,VWS V14.01,2013-05-09 15:15:00,
2013-05-09 11:20:00,62.2,60.8,29.97,West,262,1.0,2.0,95,0.00,,OVC009,0.02,VWS V14.01,2013-05-09 15:20:00,
2013-05-09 11:25:00,62.3,60.6,29.98,SE,128,0.0,3.0,94,0.00,,OVC009,0.02,VWS V14.01,2013-05-09 15:25:00,
2013-05-09 11:30:00,62.8,61.0,29.97,East,101,0.0,1.0,94,0.00,,OVC047,0.02,VWS V14.01,2013-05-09 15:30:00,
2013-05-09 11:35:00,63.6,61.2,29.98,SSW,205,2.0,6.0,92,0.00,,OVC047,0.02,VWS V14.01,2013-05-09 15:35:00,
2013-05-09 11:40:00,63.2,60.2,29.98,SSW,201,4.0,6.0,90,0.00,,OVC047,0.02,VWS V14.01,2013-05-09 15:40:00,
2013-05-09 11:45:00,62.9,60.5,29.98,SE,145,1.0,6.0,92,0.00,,OVC047,0.02,VWS V14.01,2013-05-09 15:45:00,
2013-05-09 11:50:00,62.8,60.1,29.98,South,176,2.0,3.0,91,0.00,,OVC047,0.02,VWS V14.01,2013-05-09 15:50:00,
2013-05-09 11:55:00,62.9,60.5,29.98,SW,214,3.0,4.0,92,0.00,,OVC047,0.02,VWS V14.01,2013-05-09 15:55:00,
2013-05-09 12:00:00,63.1,60.7,29.98,WNW,283,2.0,2.0,92,0.00,,OVC024,0.02,VWS V14.01,2013-05-09 16:00:00,
2013-05-09 12:05:00,63.2,60.5,29.97,West,280,0.0,3.0,91,0.00,,OVC024,0.02,VWS V14.01,2013-05-09 16:05:00,
2013-05-09 12:10:00,63.3,60.3,29.97,SSE,155,1.0,2.0,90,0.00,,OVC024,0.02,VWS V14.01,2013-05-09 16:10:00,
2013-05-09 12:15:00,63.6,60.6,29.97,South,184,1.0,4.0,90,0.00,,OVC024,0.02,VWS V14.01,2013-05-09 16:15:00,
2013-05-09 12:20:00,63.8,60.5,29.97,SSW,203,3.0,5.0,89,0.00,,OVC024,0.02,VWS V14.01,2013-05-09 16:20:00,
2013-05-09 12:25:00,63.8,60.5,29.98,SW,218,1.0,5.0,89,0.00,,OVC024,0.02,VWS V14.01,2013-05-09 16:25:00,
2013-05-09 12:30:00,63.6,60.3,29.98,WSW,242,2.0,2.0,89,0.00,,OVC009,0.02,VWS V14.01,2013-05-09 16:30:00,
2013-05-09 12:35:00,63.2,60.2,29.98,ESE,118,0.0,4.0,90,0.02,,OVC009,0.04,VWS V14.01,2013-05-09 16:35:00,
2013-05-09 12:40:00,62.6,60.2,29.96,ENE,76,0.0,0.0,92,0.08,,OVC009,0.10,VWS V14.01,2013-05-09 16:40:00,
2013-05-09 12:45:00,62.2,60.5,29.94,ENE,67,0.0,2.0,94,0.10,,OVC009,0.12,VWS V14.01,2013-05-09 16:45:00,
2013-05-09 12:50:00,62.2,60.8,29.95,SE,128,1.0,1.0,95,0.10,,OVC009,0.12,VWS V14.01,2013-05-09 16:50:00,
2013-05-09 12:55:00,62.1,60.7,29.95,SE,129,3.0,5.0,95,0.10,,OVC009,0.12,VWS V14.01,2013-05-09 16:55:00,
2013-05-09 13:00:00,62.3,60.8,29.95,SE,142,0.0,0.0,95,0.10,,-RA,0.12,VWS V14.01,2013-05-09 17:00:00,
2013-05-09 13:05:00,62.2,60.8,29.95,SE,136,1.0,3.0,95,0.10,,-RA,0.12,VWS V14.01,2013-05-09 17:05:00,
2013-05-09 13:10:00,62.6,61.5,29.96,SSE,162,2.0,2.0,96,0.10,,-RA,0.12,VWS V14.01,2013-05-09 17:10:00,
2013-05-09 13:15:00,63.0,61.2,29.96,SW,232,4.0,6.0,94,0.10,,-RA,0.12,VWS V14.01,2013-05-09 17:15:00,
2013-05-09 13:20:00,63.4,62.0,29.96,East,90,0.0,1.0,95,0.10,,-RA,0.12,VWS V14.01,2013-05-09 17:20:00,
2013-05-09 13:25:00,64.1,62.9,29.95,SSE,158,3.0,4.0,96,0.10,,-RA,0.12,VWS V14.01,2013-05-09 17:25:00,
2013-05-09 13:30:00,64.0,61.9,29.95,SSW,212,2.0,2.0,93,0.10,,BKN110,0.12,VWS V14.01,2013-05-09 17:30:00,
2013-05-09 13:35:00,64.2,62.1,29.95,SE,134,0.0,5.0,93,0.10,,BKN110,0.12,VWS V14.01,2013-05-09 17:35:00,
2013-05-09 13:40:00,64.0,61.0,29.95,SSE,149,0.0,2.0,90,0.02,,BKN110,0.12,VWS V14.01,2013-05-09 17:40:00,
2013-05-09 13:45:00,64.1,60.8,29.95,ESE,106,2.0,4.0,89,0.02,,BKN110,0.12,VWS V14.01,2013-05-09 17:45:00,
2013-05-09 13:50:00,64.3,61.3,29.95,South,169,4.0,5.0,90,0.00,,BKN110,0.12,VWS V14.01,2013-05-09 17:50:00,
2013-05-09 13:55:00,64.2,60.3,29.95,SSE,165,4.0,6.0,87,0.00,,BKN110,0.12,VWS V14.01,2013-05-09 17:55:00,
2013-05-09 14:00:00,64.1,59.2,29.95,SSE,164,4.0,6.0,84,0.00,,BKN110,0.12,VWS V14.01,2013-05-09 18:00:00,
2013-05-09 14:05:00,64.1,59.5,29.95,SSE,155,3.0,7.0,85,0.00,,BKN110,0.12,VWS V14.01,2013-05-09 18:05:00,
2013-05-09 14:10:00,64.0,58.4,29.95,SSE,156,1.0,1.0,82,0.00,,BKN110,0.12,VWS V14.01,2013-05-09 18:10:00,
2013-05-09 14:15:00,64.0,58.7,29.95,ESE,113,0.0,6.0,83,0.00,,BKN110,0.12,VWS V14.01,2013-05-09 18:15:00,
2013-05-09 14:20:00,63.8,58.2,29.95,SE,139,6.0,6.0,82,0.00,,BKN110,0.12,VWS V14.01,2013-05-09 18:20:00,
2013-05-09 14:25:00,64.0,59.1,29.95,SE,139,2.0,6.0,84,0.00,,BKN110,0.12,VWS V14.01,2013-05-09 18:25:00,
2013-05-09 14:30:00,64.4,60.5,29.95,SE,141,3.0,4.0,87,0.00,,BKN110,0.12,VWS V14.01,2013-05-09 18:30:00,
2013-05-09 14:35:00,64.1,60.8,29.95,SW,221,5.0,6.0,89,0.00,,BKN110,0.12,VWS V14.01,2013-05-09 18:35:00,
2013-05-09 14:40:00,63.8,60.8,29.94,South,169,3.0,3.0,90,0.00,,BKN110,0.12,VWS V14.01,2013-05-09 18:40:00,
2013-05-09 14:45:00,63.6,60.6,29.94,SSW,195,5.0,6.0,90,0.00,,BKN110,0.12,VWS V14.01,2013-05-09 18:45:00,
2013-05-09 14:50:00,63.0,60.3,29.94,SSE,167,4.0,7.0,91,0.00,,BKN110,0.12,VWS V14.01,2013-05-09 18:50:00,
2013-05-09 14:55:00,62.4,60.0,29.94,ESE,121,2.0,7.0,92,0.00,,BKN110,0.12,VWS V14.01,2013-05-09 18:55:00,
2013-05-09 15:00:00,62.0,59.7,29.94,South,181,5.0,5.0,92,0.00,,OVC090,0.12,VWS V14.01,2013-05-09 19:00:00,
2013-05-09 15:05:00,61.6,59.6,29.94,SSW,210,3.0,7.0,93,0.00,,OVC090,0.12,VWS V14.01,2013-05-09 19:05:00,
2013-05-09 15:10:00,61.6,59.9,29.94,SSE,163,4.0,4.0,94,0.00,,OVC090,0.12,VWS V14.01,2013-05-09 19:10:00,
2013-05-09 15:20:00,62.3,60.3,29.93,South,177,2.0,7.0,93,0.00,,BKN050,0.12,VWS V14.01,2013-05-09 19:20:00,
2013-05-09 15:30:00,63.3,60.6,29.92,SE,124,2.0,6.0,91,0.00,,BKN050,0.12,VWS V14.01,2013-05-09 19:30:00,
2013-05-09 15:40:00,63.0,60.3,29.92,SE,131,2.0,5.0,91,0.00,,BKN050,0.12,VWS V14.01,2013-05-09 19:40:00,
2013-05-09 15:50:00,62.9,60.2,29.91,SSE,153,0.0,4.0,91,0.00,,BKN050,0.12,VWS V14.01,2013-05-09 19:50:00,
2013-05-09 15:55:00,63.0,60.3,29.91,East,91,1.0,1.0,91,0.00,,OVC090,0.12,VWS V14.01,2013-05-09 19:55:00,
2013-05-09 16:00:00,62.8,60.1,29.91,ESE,103,3.0,3.0,91,0.00,,BKN050,0.12,VWS V14.01,2013-05-09 20:00:00,
2013-05-09 16:05:00,62.5,60.2,29.92,SW,222,1.0,4.0,92,0.04,,BKN050,0.16,VWS V14.01,2013-05-09 20:05:00,
2013-05-09 16:10:00,62.0,60.3,29.92,South,172,3.0,3.0,94,0.13,,BKN050,0.25,VWS V14.01,2013-05-09 20:10:00,
2013-05-09 16:15:00,61.4,59.7,29.93,ESE,115,2.0,6.0,94,0.19,,BKN050,0.31,VWS V14.01,2013-05-09 20:15:00,
2013-05-09 16:20:00,60.8,59.4,29.92,East,98,1.0,1.0,95,0.22,,BKN050,0.34,VWS V14.01,2013-05-09 20:20:00,
2013-05-09 16:25:00,60.2,58.8,29.92,ESE,113,0.0,6.0,95,0.27,,BKN050,0.39,VWS V14.01,2013-05-09 20:25:00,
2013-05-09 16:30:00,60.0,58.9,29.91,SSE,162,1.0,1.0,96,0.28,,,0.40,VWS V14.01,2013-05-09 20:30:00,
2013-05-09 16:35:00,60.2,59.3,29.91,South,177,0.0,2.0,97,0.28,,,0.40,VWS V14.01,2013-05-09 20:35:00,
2013-05-09 16:40:00,60.3,59.5,29.91,SE,132,0.0,0.0,97,0.28,,,0.40,VWS V14.01,2013-05-09 20:40:00,
2013-05-09 16:45:00,60.6,59.8,29.90,SE,132,0.0,0.0,97,0.28,,,0.40,VWS V14.01,2013-05-09 20:45:00,
2013-05-09 16:50:00,61.0,60.2,29.90,SE,131,0.0,0.0,97,0.29,,,0.41,VWS V14.01,2013-05-09 20:50:00,
2013-05-09 16:55:00,61.2,60.0,29.90,ESE,115,0.0,1.0,96,0.29,,,0.41,VWS V14.01,2013-05-09 20:55:00,
2013-05-09 17:00:00,61.2,60.0,29.90,East,90,0.0,0.0,96,0.29,,BKN080,0.41,VWS V14.01,2013-05-09 21:00:00,
2013-05-09 17:05:00,61.3,60.2,29.90,East,89,0.0,0.0,96,0.29,,BKN080,0.41,VWS V14.01,2013-05-09 21:05:00,
2013-05-09 17:10:00,61.4,60.2,29.90,East,89,0.0,0.0,96,0.16,,BKN080,0.41,VWS V14.01,2013-05-09 21:10:00,
2013-05-09 17:15:00,61.5,60.3,29.90,East,94,0.0,0.0,96,0.16,,BKN080,0.41,VWS V14.01,2013-05-09 21:15:00,
2013-05-09 17:20:00,61.8,60.7,29.90,East,90,0.0,0.0,96,0.07,,BKN080,0.41,VWS V14.01,2013-05-09 21:20:00,
2013-05-09 17:25:00,61.8,60.7,29.90,SE,126,2.0,3.0,96,0.07,,BKN080,0.41,VWS V14.01,2013-05-09 21:25:00,
2013-05-09 17:30:00,61.9,60.8,29.89,SE,127,0.0,1.0,96,0.01,,BKN090,0.41,VWS V14.01,2013-05-09 21:30:00,
2013-05-09 17:35:00,61.9,60.5,29.89,SSE,158,1.0,3.0,95,0.01,,BKN090,0.41,VWS V14.01,2013-05-09 21:35:00,
2013-05-09 17:40:00,61.9,60.5,29.89,SSE,153,2.0,2.0,95,0.01,,BKN090,0.41,VWS V14.01,2013-05-09 21:40:00,
2013-05-09 17:45:00,61.8,60.4,29.89,SSE,168,3.0,6.0,95,0.01,,BKN090,0.41,VWS V14.01,2013-05-09 21:45:00,
2013-05-09 17:50:00,61.6,59.9,29.89,ESE,116,3.0,4.0,94,0.00,,BKN090,0.41,VWS V14.01,2013-05-09 21:50:00,
2013-05-09 17:55:00,61.4,59.7,29.89,East,90,3.0,6.0,94,0.00,,BKN090,0.41,VWS V14.01,2013-05-09 21:55:00,
2013-05-09 18:00:00,61.1,59.7,29.89,ESE,121,3.0,3.0,95,0.00,,OVC022,0.41,VWS V14.01,2013-05-09 22:00:00,
2013-05-09 18:05:00,61.0,59.6,29.89,East,99,0.0,3.0,95,0.00,,OVC022,0.41,VWS V14.01,2013-05-09 22:05:00,
2013-05-09 18:10:00,60.8,59.1,29.88,ESE,122,2.0,2.0,94,0.00,,OVC022,0.41,VWS V14.01,2013-05-09 22:10:00,
2013-05-09 18:15:00,60.5,58.8,29.89,SE,128,1.0,5.0,94,0.00,,OVC022,0.41,VWS V14.01,2013-05-09 22:15:00,
2013-05-09 18:20:00,60.4,58.7,29.89,ESE,116,1.0,1.0,94,0.00,,OVC022,0.41,VWS V14.01,2013-05-09 22:20:00,
2013-05-09 18:25:00,60.2,58.5,29.89,SSE,163,4.0,9.0,94,0.00,,OVC022,0.41,VWS V14.01,2013-05-09 22:25:00,
2013-05-09 18:30:00,60.0,58.6,29.89,SSE,147,3.0,4.0,95,0.00,,OVC022,0.41,VWS V14.01,2013-05-09 22:30:00,
2013-05-09 18:35:00,59.8,58.4,29.89,SSE,158,3.0,7.0,95,0.00,,OVC022,0.41,VWS V14.01,2013-05-09 22:35:00,
2013-05-09 18:40:00,59.5,58.1,29.89,ESE,115,1.0,3.0,95,0.00,,OVC022,0.41,VWS V14.01,2013-05-09 22:40:00,
2013-05-09 18:45:00,59.3,57.9,29.89,SSE,165,3.0,5.0,95,0.00,,OVC022,0.41,VWS V14.01,2013-05-09 22:45:00,
2013-05-09 18:50:00,59.0,57.6,29.89,SSE,149,5.0,5.0,95,0.00,,OVC022,0.41,VWS V14.01,2013-05-09 22:50:00,
2013-05-09 18:55:00,58.7,57.3,29.89,SE,146,2.0,7.0,95,0.00,,OVC022,0.41,VWS V14.01,2013-05-09 22:55:00,
2013-05-09 19:00:00,58.5,57.4,29.89,SSE,153,3.0,3.0,96,0.00,,OVC004,0.41,VWS V14.01,2013-05-09 23:00:00,
2013-05-09 19:05:00,58.2,56.8,29.89,SE,136,3.0,7.0,95,0.00,,OVC004,0.41,VWS V14.01,2013-05-09 23:05:00,
2013-05-09 19:10:00,57.7,56.3,29.89,SSW,194,1.0,1.0,95,0.00,,OVC004,0.41,VWS V14.01,2013-05-09 23:10:00,
2013-05-09 19:15:00,57.3,56.2,29.89,ESE,118,3.0,6.0,96,0.00,,OVC004,0.41,VWS V14.01,2013-05-09 23:15:00,
2013-05-09 19:20:00,57.1,56.0,29.90,SSE,158,3.0,7.0,96,0.00,,OVC004,0.41,VWS V14.01,2013-05-09 23:20:00,
2013-05-09 19:30:00,56.8,55.7,29.90,SE,135,1.0,6.0,96,0.00,,OVC004,0.41,VWS V14.01,2013-05-09 23:30:00,
2013-05-09 19:40:00,56.7,55.9,29.91,SE,135,1.0,3.0,97,0.00,,OVC004,0.41,VWS V14.01,2013-05-09 23:40:00,
2013-05-09 19:50:00,59.0,57.6,29.89,SSW,194,4.0,6.0,95,0.00,,CLR,0.41,VWS V14.01,2013-05-09 23:50:00,
2013-05-09 19:52:00,56.2,55.1,29.91,SSE,160,4.0,4.0,96,0.00,,OVC004,0.41,VWS V14.01,2013-05-09 23:52:00,
2013-05-09 19:57:00,56.0,55.2,29.90,West,267,0.0,4.0,97,0.00,,OVC004,0.41,VWS V14.01,2013-05-09 23:57:00,
2013-05-09 20:00:00,55.9,55.1,29.90,ESE,108,0.0,5.0,97,0.00,,CLR,0.41,VWS V14.01,2013-05-10 00:00:00,
2013-05-09 20:02:00,55.8,55.0,29.90,SE,128,2.0,5.0,97,0.00,,OVC004,0.41,VWS V14.01,2013-05-10 00:02:00,
2013-05-09 20:07:00,55.7,54.9,29.91,SSE,148,1.0,6.0,97,0.00,,OVC004,0.41,VWS V14.01,2013-05-10 00:07:00,
2013-05-09 20:10:00,55.7,54.9,29.91,SE,141,0.0,6.0,97,0.00,,CLR,0.41,VWS V14.01,2013-05-10 00:10:00,
2013-05-09 20:12:00,55.6,54.8,29.91,South,186,5.0,5.0,97,0.00,,OVC004,0.41,VWS V14.01,2013-05-10 00:12:00,
2013-05-09 20:17:00,55.5,54.7,29.91,SW,235,2.0,5.0,97,0.00,,OVC004,0.41,VWS V14.01,2013-05-10 00:17:00,
2013-05-09 20:20:00,55.5,54.7,29.91,SW,218,4.0,6.0,97,0.00,,CLR,0.41,VWS V14.01,2013-05-10 00:20:00,
2013-05-09 20:22:00,55.5,55.0,29.91,SSE,152,0.0,6.0,98,0.00,,OVC004,0.41,VWS V14.01,2013-05-10 00:22:00,
2013-05-09 20:27:00,55.5,55.0,29.91,SE,141,0.0,6.0,98,0.00,,OVC004,0.41,VWS V14.01,2013-05-10 00:27:00,
2013-05-09 20:30:00,55.5,55.0,29.91,SSE,160,3.0,6.0,98,0.00,,CLR,0.41,VWS V14.01,2013-05-10 00:30:00,
2013-05-09 20:32:00,55.4,54.8,29.91,SSE,160,4.0,4.0,98,0.00,,,0.41,VWS V14.01,2013-05-10 00:32:00,
2013-05-09 20:37:00,55.2,54.7,29.91,South,174,0.0,5.0,98,0.00,,,0.41,VWS V14.01,2013-05-10 00:37:00,
2013-05-09 20:40:00,55.1,54.5,29.91,South,172,4.0,5.0,98,0.00,,CLR,0.41,VWS V14.01,2013-05-10 00:40:00,
2013-05-09 20:42:00,54.8,54.0,29.91,SSE,159,2.0,4.0,97,0.00,,,0.41,VWS V14.01,2013-05-10 00:42:00,
2013-05-09 20:47:00,54.5,53.7,29.91,South,173,1.0,5.0,97,0.00,,,0.41,VWS V14.01,2013-05-10 00:47:00,
2013-05-09 20:50:00,54.5,54.0,29.91,SSE,155,1.0,5.0,98,0.00,,CLR,0.41,VWS V14.01,2013-05-10 00:50:00,
2013-05-09 20:52:00,54.4,53.8,29.91,SSE,158,4.0,4.0,98,0.00,,,0.41,VWS V14.01,2013-05-10 00:52:00,
2013-05-09 20:57:00,54.2,53.7,29.91,SSW,200,4.0,4.0,98,0.00,,,0.41,VWS V14.01,2013-05-10 00:57:00,
2013-05-09 21:00:00,54.1,53.5,29.91,ESE,114,1.0,4.0,98,0.00,,CLR,0.41,VWS V14.01,2013-05-10 01:00:00,
2013-05-09 21:02:00,54.1,53.5,29.91,ESE,103,1.0,3.0,98,0.00,,,0.41,VWS V14.01,2013-05-10 01:02:00,
2013-05-09 21:07:00,54.1,53.5,29.92,SE,135,4.0,4.0,98,0.00,,,0.41,VWS V14.01,2013-05-10 01:07:00,
2013-05-09 21:10:00,54.0,53.5,29.92,SSE,153,3.0,6.0,98,0.00,,CLR,0.41,VWS V14.01,2013-05-10 01:10:00,
2013-05-09 21:12:00,53.8,53.2,29.92,SSE,153,4.0,5.0,98,0.00,,,0.41,VWS V14.01,2013-05-10 01:12:00,
2013-05-09 21:17:00,53.7,53.2,29.92,South,172,2.0,5.0,98,0.00,,,0.41,VWS V14.01,2013-05-10 01:17:00,
2013-05-09 21:20:00,53.7,53.2,29.92,SSE,156,0.0,5.0,98,0.00,,CLR,0.41,VWS V14.01,2013-05-10 01:20:00,
2013-05-09 21:22:00,53.7,53.2,29.92,SE,140,5.0,5.0,98,0.00,,,0.41,VWS V14.01,2013-05-10 01:22:00,
2013-05-09 21:27:00,53.7,53.2,29.92,SSE,167,0.0,5.0,98,0.00,,,0.41,VWS V14.01,2013-05-10 01:27:00,
2013-05-09 21:30:00,53.6,53.0,29.92,South,184,3.0,5.0,98,0.00,,CLR,0.41,VWS V14.01,2013-05-10 01:30:00,
2013-05-09 21:32:00,53.6,53.0,29.92,SW,218,3.0,5.0,98,0.00,,,0.41,VWS V14.01,2013-05-10 01:32:00,
2013-05-09 21:37:00,53.5,53.0,29.92,SW,228,0.0,5.0,98,0.00,,,0.41,VWS V14.01,2013-05-10 01:37:00,
2013-05-09 21:40:00,53.5,53.0,29.92,West,263,1.0,5.0,98,0.00,,CLR,0.41,VWS V14.01,2013-05-10 01:40:00,
2013-05-09 21:42:00,53.4,52.8,29.92,SE,128,0.0,4.0,98,0.00,,,0.41,VWS V14.01,2013-05-10 01:42:00,
2013-05-09 21:47:00,53.4,52.8,29.92,South,173,2.0,5.0,98,0.00,,,0.41,VWS V14.01,2013-05-10 01:47:00,
2013-05-09 21:50:00,53.3,52.8,29.92,WSW,250,3.0,5.0,98,0.00,,CLR,0.41,VWS V14.01,2013-05-10 01:50:00,
2013-05-09 21:52:00,53.3,52.8,29.92,SE,146,3.0,5.0,98,0.00,,,0.41,VWS V14.01,2013-05-10 01:52:00,
2013-05-09 21:57:00,53.2,52.7,29.92,SE,136,3.0,5.0,98,0.00,,,0.41,VWS V14.01,2013-05-10 01:57:00,
2013-05-09 22:00:00,53.2,52.7,29.92,South,191,2.0,5.0,98,0.00,,CLR,0.41,VWS V14.01,2013-05-10 02:00:00,
2013-05-09 22:02:00,53.2,52.9,29.92,South,179,0.0,2.0,99,0.00,,,0.41,VWS V14.01,2013-05-10 02:02:00,
2013-05-09 22:07:00,53.2,52.9,29.92,ESE,109,1.0,4.0,99,0.00,,,0.41,VWS V14.01,2013-05-10 02:07:00,
2013-05-09 22:10:00,53.3,53.0,29.92,WSW,239,1.0,4.0,99,0.00,,CLR,0.41,VWS V14.01,2013-05-10 02:10:00,
2013-05-09 22:12:00,53.3,53.0,29.92,SSW,201,0.0,1.0,99,0.00,,,0.41,VWS V14.01,2013-05-10 02:12:00,
2013-05-09 22:17:00,53.3,53.0,29.92,SSW,194,1.0,4.0,99,0.00,,,0.41,VWS V14.01,2013-05-10 02:17:00,
2013-05-09 22:20:00,53.3,53.0,29.92,SSE,159,2.0,4.0,99,0.00,,CLR,0.41,VWS V14.01,2013-05-10 02:20:00,
2013-05-09 22:22:00,53.2,52.9,29.91,SW,214,1.0,4.0,99,0.00,,,0.41,VWS V14.01,2013-05-10 02:22:00,
2013-05-09 22:27:00,53.2,52.9,29.91,SE,129,2.0,5.0,99,0.00,,,0.41,VWS V14.01,2013-05-10 02:27:00,
2013-05-09 22:30:00,53.2,52.9,29.91,ESE,121,0.0,5.0,99,0.00,,CLR,0.41,VWS V14.01,2013-05-10 02:30:00,
2013-05-09 22:32:00,53.2,52.9,29.91,SW,221,0.0,3.0,99,0.00,,,0.41,VWS V14.01,2013-05-10 02:32:00,
2013-05-09 22:38:00,53.2,52.9,29.91,SE,128,0.0,3.0,99,0.00,,,0.41,VWS V14.01,2013-05-10 02:38:00,
2013-05-09 22:40:00,53.2,52.9,29.91,SW,222,3.0,3.0,99,0.00,,CLR,0.41,VWS V14.01,2013-05-10 02:40:00,
2013-05-09 22:43:00,53.2,52.9,29.91,SSE,166,0.0,3.0,99,0.00,,,0.41,VWS V14.01,2013-05-10 02:43:00,
2013-05-09 22:48:00,53.2,52.9,29.91,West,276,3.0,4.0,99,0.00,,,0.41,VWS V14.01,2013-05-10 02:48:00,
2013-05-09 22:50:00,53.2,52.9,29.91,WSW,246,1.0,4.0,99,0.00,,CLR,0.41,VWS V14.01,2013-05-10 02:50:00,
2013-05-09 22:53:00,53.2,52.9,29.91,WNW,288,2.0,3.0,99,0.00,,,0.41,VWS V14.01,2013-05-10 02:53:00,
2013-05-09 22:58:00,53.2,52.9,29.91,SE,129,1.0,3.0,99,0.00,,,0.41,VWS V14.01,2013-05-10 02:58:00,
2013-05-09 23:00:00,53.2,52.9,29.91,SSE,165,1.0,3.0,99,0.00,,CLR,0.41,VWS V14.01,2013-05-10 03:00:00,
2013-05-09 23:02:00,53.2,52.9,29.90,WSW,252,1.0,3.0,99,0.00,,,0.41,VWS V14.01,2013-05-10 03:02:00,
2013-05-09 23:07:00,53.3,53.0,29.90,West,260,2.0,3.0,99,0.00,,,0.41,VWS V14.01,2013-05-10 03:07:00,
2013-05-09 23:10:00,53.3,53.0,29.90,WSW,256,1.0,4.0,99,0.00,,CLR,0.41,VWS V14.01,2013-05-10 03:10:00,
2013-05-09 23:12:00,53.4,53.1,29.90,South,187,0.0,1.0,99,0.00,,,0.41,VWS V14.01,2013-05-10 03:12:00,
2013-05-09 23:17:00,53.4,53.1,29.90,South,191,1.0,3.0,99,0.00,,,0.41,VWS V14.01,2013-05-10 03:17:00,
2013-05-09 23:20:00,53.4,53.1,29.90,SSW,197,0.0,3.0,99,0.00,,CLR,0.41,VWS V14.01,2013-05-10 03:20:00,
2013-05-09 23:22:00,53.5,53.2,29.90,SW,221,2.0,5.0,99,0.00,,,0.41,VWS V14.01,2013-05-10 03:22:00,
2013-05-09 23:27:00,53.5,53.2,29.90,WSW,248,1.0,6.0,99,0.00,,,0.41,VWS V14.01,2013-05-10 03:27:00,
2013-05-09 23:30:00,53.6,53.3,29.90,WSW,258,2.0,6.0,99,0.00,,CLR,0.41,VWS V14.01,2013-05-10 03:30:00,
2013-05-09 23:32:00,53.6,53.3,29.90,SE,146,3.0,3.0,99,0.00,,,0.41,VWS V14.01,2013-05-10 03:32:00,
2013-05-09 23:37:00,53.6,53.3,29.90,SSW,200,0.0,3.0,99,0.00,,,0.41,VWS V14.01,2013-05-10 03:37:00,
2013-05-09 23:40:00,53.6,53.3,29.90,SSW,207,0.0,3.0,99,0.00,,CLR,0.41,VWS V14.01,2013-05-10 03:40:00,
2013-05-09 23:42:00,53.6,53.3,29.90,WSW,250,1.0,1.0,99,0.00,,,0.41,VWS V14.01,2013-05-10 03:42:00,
2013-05-09 23:47:00,53.7,53.4,29.90,WSW,243,0.0,2.0,99,0.00,,,0.41,VWS V14.01,2013-05-10 03:47:00,
2013-05-09 23:50:00,53.7,53.4,29.90,SW,219,0.0,2.0,99,0.00,,CLR,0.41,VWS V14.01,2013-05-10 03:50:00,
2013-05-09 23:52:00,53.8,53.5,29.90,SSE,156,0.0,0.0,99,0.00,,,0.41,VWS V14.01,2013-05-10 03:52:00,
2013-05-09 23:57:00,53.8,53.5,29.90,SW,224,0.0,1.0,99,0.00,,,0.41,VWS V14.01,2013-05-10 03:57:00,